Weather in Ruokolahti

Finland     61°17′32″N   28°48′44″E
temp.,
°C
wind,
m/s
gust,
m/s
humid.,
%
clouds,
%
prec.,
mm/h
press.,
hPa
HPBL,
m
9 march, tue
tue923:00−17ne23940 0.0 101823
02:00−18ene22940 0.0 102021
05:00−19e239316 0.0 102026
08:00−19e359057 0.0 1022171
11:00−16e3585100 0.0 1023298
14:00−13e358478 0.0 1024452
17:00−16e468814 0.0 1025208
20:00−19e36927 0.0 1027110
10 march, wed
wed1023:00−20ene36950 0.0 1029107
02:00−20e34989 0.0 103062
05:00−20e339970 0.0 103057
08:00−19e359981 0.0 1032118
11:00−15ese248890 0.0 1032326
14:00−11se247651 0.0 1032340
17:00−12ese34810 0.0 103086
20:00−16se35870 0.0 103082
11 march, thu
thu1123:00−17se35880 0.0 103088
02:00−17se47870 0.0 1028138
05:00−17se49860 0.0 1026179
08:00−15sse410824 0.0 1024272
11:00−11sse598764 0.0 1022480
14:00−8s598881 0.0 1021470
17:00−7s51192100 0.1 1018489
20:00−5s61294100 0.3 1017557
12 march, fri
fri1223:00−5s61391100 0.2 1015536
02:00−7sse6149296 0.2 1013428
05:00−7sse71591100 0.1 1011645
08:00−7sse71491100 0.3 1009724
11:00−6s81487100 0.1 1007827
14:00−4s71390100 0.3 1006914
17:00−3s71393100 0.4 1004817
20:00−3s71494100 0.7 1003694
13 march, sat
sat1323:00−4s61394100 0.3 1002643
02:00−4sse51194100 0.4 1001507
05:00−4sse51195100 0.3 1001419
08:00−4sse51094100 0.4 1000349
11:000s6109899 0.3 1000534
14:00+1s61298100 0.4 999594
17:000s61398100 1.8 997622
20:000ssw51098100 4.3 996513